Location: San Vito
(41.8833°N, 12.9833°E)
Time: 23:56:28
(UTC+00:00)

CZ-2C R/B - Pass Details

Date: 17 November 2019
Orbit: 667 x 785 km, 98.1° (Epoch: 07 December)

Event Time Altitude Azimuth Distance (km) Brightness Sun altitude
Rises 03:06:35 0° 18° (NNE) 3,164 5.9 -32.1°
Reaches altitude 10° 03:09:00 10° 25° (NNE) 2,218 5.2 -31.6°
Maximum altitude 03:13:40 47° 99° (E) 933 3.2 -30.8°
Enters shadow 03:13:42 47° 100° (E) 933 3.2 -30.8°
